Weather in Aleksandrovka

Russia / Orenburg Oblast     52°40′44″N   54°25′03″E
temp.,
°C
wind,
m/s
gust,
m/s
humid.,
%
clouds,
%
prec.,
mm/h
press.,
hPa
HPBL,
m
27 february, sat
sat2723:00−18se7139698 0.1 1019319
02:00−16sse81494100 0.0 1015404
05:00−15sse111795100 1.0 1010495
08:00−13sse101694100 4.5 1006581
11:00−10sse91494100 5.4 1004481
14:00−6sse71095100 0.8 1003422
17:00−4sse5896100 1.3 1002268
20:00−2sse4698100 0.6 1000196
28 february, sun
sun2823:00−1sw6998100 1.6 1000440
02:00−1sw4798100 0.5 998354
05:00−2ssw5998100 1.3 998256
08:00−3sw3698100 0.6 998156
11:00−1wsw4697100 1.1 999310
14:00−1w559787 0.3 1001319
17:00−6wnw699490 0.4 1003321
20:00−10wnw589685 0.1 1006158
1 march, mon
mon123:00−13wnw449790 0.1 100972
02:00−14wnw239691 0.1 101146
05:00−14nw359691 0.4 1013101
08:00−15nw339696 0.3 101553
11:00−13nw349397 0.4 1017214
14:00−12nw449195 0.1 1018315
17:00−13nw459396 0.2 1019314
20:00−19nw349994 0.0 102136
2 march, tue
tue223:00−21wnw2310057 0.0 102220
02:00−22w231008 0.0 102220
05:00−24w2310013 0.0 102220
08:00−25sw3310080 0.0 102121
11:00−20ssw469878 0.0 1019188
14:00−16ssw699598 0.0 1017327
17:00−14s7119499 0.1 1015406
20:00−13ssw71295100 0.4 1012470
3 march, wed
wed323:00−10s71495100 1.5 1009452
02:00−6s81495100 1.2 1006556
05:00−4ssw71296100 2.4 1003548
08:00−4ssw61096100 0.9 1001413
11:00−4sw5796100 1.3 1001328
14:00−3wsw5694100 0.2 1001444
17:00−3wsw6894100 0.5 1001557
20:00−5sw589799 0.4 1002248